Location: Falniów
(50.3639°N, 19.9642°E)
Time: 18:45:10
(UTC+00:00)

SL-08 R/B - Pass Details

Date: 21 April 2026
Orbit: 667 x 728 km, 98.5° (Epoch: 13 May)

Event Time Altitude Azimuth Distance (km) Brightness Sun altitude
Rises 19:24:35 0° 14° (NNE) 3,160 7.1 -14.6°
Reaches altitude 10° 19:26:52 10° 13° (NNE) 2,236 6.3 -14.9°
Maximum altitude 19:31:48 84° 287° (WNW) 740 3.4 -15.4°
Drops below altitude 10° 19:36:41 10° 199° (SSW) 2,216 5.7 -16.0°
Sets 19:38:56 0° 199° (SSW) 3,128 6.4 -16.3°
